owner,sensor,date,latitude,longitude,vertical_datum,sea_water_temperature,qcFlag
BP,ioos:station:wmo:42369:3,2022-11-01T00:00:00Z,27.2039,-90.2727,511.0,12.3,11111222
BP,ioos:station:wmo:42369:3,2022-11-01T00:20:00Z,27.2039,-90.2727,511.0,12.3,11111222
BP,ioos:station:wmo:42369:3,2022-11-01T00:40:00Z,27.2039,-90.2726,512.5,12.3,11111222
BP,ioos:station:wmo:42369:3,2022-11-01T01:00:00Z,27.2039,-90.2726,514.6,12.3,11111222
BP,ioos:station:wmo:42369:3,2022-11-01T01:20:00Z,27.2039,-90.2726,515.2,12.3,11111222
BP,ioos:station:wmo:42369:3,2022-11-01T01:40:00Z,27.2040,-90.2726,514.9,12.2,11111222
BP,ioos:station:wmo:42369:3,2022-11-01T02:00:00Z,27.2041,-90.2725,515.9,12.2,11111222
BP,ioos:station:wmo:42369:3,2022-11-01T02:20:00Z,27.2041,-90.2725,517.5,12.1,11111222
BP,ioos:station:wmo:42369:3,2022-11-01T02:40:00Z,27.2041,-90.2725,516.8,12.1,11111222
BP,ioos:station:wmo:42369:3,2022-11-01T03:00:00Z,27.2041,-90.2725,518.8,12.1,11111222
BP,ioos:station:wmo:42369:3,2022-11-01T03:20:00Z,27.2040,-90.2724,522.1,12.1,11111222
BP,ioos:station:wmo:42369:3,2022-11-01T03:40:00Z,27.2039,-90.2725,522.0,12.1,11111222
BP,ioos:station:wmo:42369:3,2022-11-01T04:00:00Z,27.2038,-90.2725,523.2,12.1,11111222
BP,ioos:station:wmo:42369:3,2022-11-01T09:00:00Z,27.2037,-90.2726,518.9,12.1,11111222
BP,ioos:station:wmo:42369:3,2022-11-01T09:20:00Z,27.2037,-90.2726,518.6,12.2,11111222
BP,ioos:station:wmo:42369:3,2022-11-01T09:40:00Z,27.2038,-90.2726,518.2,12.2,11111222
BP,ioos:station:wmo:42369:3,2022-11-01T10:00:00Z,27.2038,-90.2726,518.6,12.2,11111222
BP,ioos:station:wmo:42369:3,2022-11-01T10:20:00Z,27.2038,-90.2726,520.0,12.1,11111222
BP,ioos:station:wmo:42369:3,2022-11-01T10:40:00Z,27.2038,-90.2725,521.5,12.1,11111222
BP,ioos:station:wmo:42369:3,2022-11-01T11:00:00Z,27.2037,-90.2725,523.0,12.1,11111222
BP,ioos:station:wmo:42369:3,2022-11-01T11:20:00Z,27.2037,-90.2725,524.0,12.1,11111222
BP,ioos:station:wmo:42369:3,2022-11-01T11:40:00Z,27.2037,-90.2725,524.9,12.0,11111222
BP,ioos:station:wmo:42369:3,2022-11-01T12:00:00Z,27.2037,-90.2725,526.1,12.0,11111222
BP,ioos:station:wmo:42369:3,2022-11-01T12:20:00Z,27.2036,-90.2725,528.0,12.0,11111222
BP,ioos:station:wmo:42369:3,2022-11-01T12:40:00Z,27.2036,-90.2725,529.3,12.0,11111222
BP,ioos:station:wmo:42369:3,2022-11-01T13:00:00Z,27.2036,-90.2725,531.2,12.0,11111222
BP,ioos:station:wmo:42369:3,2022-11-01T13:20:00Z,27.2036,-90.2724,531.7,11.9,11111222
BP,ioos:station:wmo:42369:3,2022-11-01T13:40:00Z,27.2036,-90.2724,533.2,11.9,11111222
BP,ioos:station:wmo:42369:3,2022-11-01T14:00:00Z,27.2036,-90.2724,532.9,11.8,11111222
BP,ioos:station:wmo:42369:3,2022-11-01T14:20:00Z,27.2035,-90.2725,532.8,11.8,11111222
BP,ioos:station:wmo:42369:3,2022-11-01T14:40:00Z,27.2035,-90.2725,533.1,11.8,11111222
BP,ioos:station:wmo:42369:3,2022-11-01T15:00:00Z,27.2035,-90.2725,532.9,11.8,11111222
BP,ioos:station:wmo:42369:3,2022-11-01T15:20:00Z,27.2036,-90.2725,532.7,11.8,11111222
BP,ioos:station:wmo:42369:3,2022-11-01T15:40:00Z,27.2035,-90.2725,530.9,11.8,11111222
BP,ioos:station:wmo:42369:3,2022-11-01T16:00:00Z,27.2035,-90.2725,531.1,11.9,11111222
BP,ioos:station:wmo:42369:3,2022-11-01T16:20:00Z,27.2035,-90.2725,530.5,11.9,11111222
BP,ioos:station:wmo:42369:3,2022-11-01T16:40:00Z,27.2035,-90.2725,529.8,11.9,11111222
BP,ioos:station:wmo:42369:3,2022-11-01T17:00:00Z,27.2035,-90.2725,531.7,11.9,11111222
BP,ioos:station:wmo:42369:3,2022-11-01T17:20:00Z,27.2035,-90.2725,533.3,11.9,11111222
BP,ioos:station:wmo:42369:3,2022-11-01T17:40:00Z,27.2035,-90.2726,534.0,12.0,11111222
BP,ioos:station:wmo:42369:3,2022-11-01T18:00:00Z,27.2035,-90.2726,533.4,12.0,11111222
BP,ioos:station:wmo:42369:3,2022-11-01T18:20:00Z,27.2034,-90.2726,531.8,12.0,11111222
BP,ioos:station:wmo:42369:3,2022-11-01T18:40:00Z,27.2034,-90.2726,530.7,12.0,11111222
BP,ioos:station:wmo:42369:3,2022-11-01T19:00:00Z,27.2033,-90.2727,530.2,12.0,11111222
BP,ioos:station:wmo:42369:3,2022-11-01T19:20:00Z,27.2033,-90.2727,530.4,11.9,11111222
BP,ioos:station:wmo:42369:3,2022-11-01T19:40:00Z,27.2032,-90.2727,530.6,11.9,11111222
BP,ioos:station:wmo:42369:3,2022-11-01T20:00:00Z,27.2032,-90.2728,529.8,11.9,11111222
BP,ioos:station:wmo:42369:3,2022-11-01T20:20:00Z,27.2032,-90.2727,529.6,11.9,11111222
BP,ioos:station:wmo:42369:3,2022-11-01T20:40:00Z,27.2032,-90.2727,529.3,11.9,11111222
BP,ioos:station:wmo:42369:3,2022-11-01T21:00:00Z,27.2032,-90.2727,529.4,11.9,11111222
BP,ioos:station:wmo:42369:3,2022-11-01T21:20:00Z,27.2033,-90.2727,528.7,11.9,11111222
BP,ioos:station:wmo:42369:3,2022-11-01T21:40:00Z,27.2033,-90.2727,529.2,11.9,11111222
BP,ioos:station:wmo:42369:3,2022-11-01T22:00:00Z,27.2033,-90.2727,529.5,11.9,11111222
BP,ioos:station:wmo:42369:3,2022-11-01T22:20:00Z,27.2033,-90.2727,529.0,11.8,11111222
BP,ioos:station:wmo:42369:3,2022-11-01T22:40:00Z,27.2033,-90.2727,530.4,11.8,11111222
BP,ioos:station:wmo:42369:3,2022-11-01T23:00:00Z,27.2033,-90.2726,530.3,11.8,11111222
BP,ioos:station:wmo:42369:3,2022-11-01T23:20:00Z,27.2033,-90.2727,530.9,11.8,11111222
BP,ioos:station:wmo:42369:3,2022-11-01T23:40:00Z,27.2033,-90.2726,532.0,11.8,11111222
BP,ioos:station:wmo:42369:3,2022-11-02T00:00:00Z,27.2034,-90.2726,532.0,11.8,11111222
BP,ioos:station:wmo:42369:3,2022-11-02T00:20:00Z,27.2033,-90.2726,532.4,11.8,11111222
BP,ioos:station:wmo:42369:3,2022-11-02T00:40:00Z,27.2033,-90.2726,532.6,11.8,11111222
BP,ioos:station:wmo:42369:3,2022-11-02T01:00:00Z,27.2033,-90.2726,532.1,11.8,11111222
BP,ioos:station:wmo:42369:3,2022-11-02T01:20:00Z,27.2033,-90.2726,533.3,11.8,11111222
BP,ioos:station:wmo:42369:3,2022-11-02T01:40:00Z,27.2033,-90.2726,532.9,11.8,11111222
BP,ioos:station:wmo:42369:3,2022-11-02T02:00:00Z,27.2032,-90.2726,533.3,11.8,11111222
BP,ioos:station:wmo:42369:3,2022-11-02T02:20:00Z,27.2032,-90.2727,534.2,11.8,11111222
BP,ioos:station:wmo:42369:3,2022-11-02T02:40:00Z,27.2031,-90.2727,534.9,11.8,11111222
BP,ioos:station:wmo:42369:3,2022-11-02T03:00:00Z,27.2031,-90.2727,534.8,11.7,11111222
BP,ioos:station:wmo:42369:3,2022-11-02T03:20:00Z,27.2030,-90.2728,535.1,11.7,11111222
BP,ioos:station:wmo:42369:3,2022-11-02T03:40:00Z,27.2030,-90.2728,536.0,11.6,11111222
BP,ioos:station:wmo:42369:3,2022-11-02T04:00:00Z,27.2030,-90.2727,536.8,11.6,11111222
BP,ioos:station:wmo:42369:3,2022-11-02T04:20:00Z,27.2029,-90.2728,536.0,11.7,11111222
BP,ioos:station:wmo:42369:3,2022-11-02T04:40:00Z,27.2028,-90.2728,536.8,11.7,11111222
BP,ioos:station:wmo:42369:3,2022-11-02T05:00:00Z,27.2028,-90.2728,538.3,11.7,11111222
BP,ioos:station:wmo:42369:3,2022-11-02T05:20:00Z,27.2028,-90.2728,538.6,11.7,11111222
BP,ioos:station:wmo:42369:3,2022-11-02T05:40:00Z,27.2027,-90.2728,538.5,11.7,11111222
BP,ioos:station:wmo:42369:3,2022-11-02T06:00:00Z,27.2027,-90.2728,539.4,11.7,11111222
BP,ioos:station:wmo:42369:3,2022-11-02T06:20:00Z,27.2027,-90.2728,538.8,11.7,11111222
BP,ioos:station:wmo:42369:3,2022-11-02T06:40:00Z,27.2027,-90.2728,539.3,11.7,11111222
BP,ioos:station:wmo:42369:3,2022-11-02T07:00:00Z,27.2027,-90.2727,538.7,11.7,11111222
BP,ioos:station:wmo:42369:3,2022-11-02T07:20:00Z,27.2027,-90.2727,538.1,11.6,11111222
BP,ioos:station:wmo:42369:3,2022-11-02T07:40:00Z,27.2027,-90.2727,538.4,11.6,11111222
BP,ioos:station:wmo:42369:3,2022-11-02T08:00:00Z,27.2027,-90.2727,539.6,11.6,11111222
BP,ioos:station:wmo:42369:3,2022-11-02T08:20:00Z,27.2027,-90.2728,539.4,11.5,11111222
BP,ioos:station:wmo:42369:3,2022-11-02T08:40:00Z,27.2027,-90.2727,540.1,11.6,11111222
BP,ioos:station:wmo:42369:3,2022-11-02T09:00:00Z,27.2027,-90.2727,539.8,11.6,11111222
BP,ioos:station:wmo:42369:3,2022-11-02T09:20:00Z,27.2027,-90.2727,539.0,11.6,11111222
BP,ioos:station:wmo:42369:3,2022-11-02T09:40:00Z,27.2028,-90.2727,536.6,11.6,11111222
BP,ioos:station:wmo:42369:3,2022-11-02T10:00:00Z,27.2028,-90.2727,538.3,11.7,11111222
BP,ioos:station:wmo:42369:3,2022-11-02T10:20:00Z,27.2028,-90.2727,537.2,11.7,11111222
BP,ioos:station:wmo:42369:3,2022-11-02T10:40:00Z,27.2028,-90.2727,537.3,11.7,11111222
BP,ioos:station:wmo:42369:3,2022-11-02T11:00:00Z,27.2028,-90.2727,536.6,11.7,11111222
BP,ioos:station:wmo:42369:3,2022-11-02T11:20:00Z,27.2028,-90.2728,535.5,11.7,11111222
BP,ioos:station:wmo:42369:3,2022-11-02T11:40:00Z,27.2027,-90.2728,535.2,11.7,11111222
BP,ioos:station:wmo:42369:3,2022-11-02T12:00:00Z,27.2027,-90.2728,537.4,11.7,11111222
BP,ioos:station:wmo:42369:3,2022-11-02T12:20:00Z,27.2027,-90.2728,537.4,11.7,11111222
BP,ioos:station:wmo:42369:3,2022-11-02T12:40:00Z,27.2027,-90.2728,538.8,11.7,11111222
BP,ioos:station:wmo:42369:3,2022-11-02T13:00:00Z,27.2027,-90.2728,539.3,11.7,11111222
BP,ioos:station:wmo:42369:3,2022-11-02T13:20:00Z,27.2026,-90.2728,538.7,11.7,11111222
BP,ioos:station:wmo:42369:3,2022-11-02T13:40:00Z,27.2026,-90.2728,540.0,11.7,11111222
BP,ioos:station:wmo:42369:3,2022-11-02T14:00:00Z,27.2026,-90.2728,540.4,11.7,11111222
BP,ioos:station:wmo:42369:3,2022-11-02T14:20:00Z,27.2026,-90.2728,540.2,11.7,11111222
BP,ioos:station:wmo:42369:3,2022-11-02T14:40:00Z,27.2026,-90.2727,540.2,11.7,11111222
BP,ioos:station:wmo:42369:3,2022-11-02T15:00:00Z,27.2027,-90.2727,542.2,11.6,11111222
BP,ioos:station:wmo:42369:3,2022-11-02T15:20:00Z,27.2026,-90.2727,542.8,11.6,11111222
BP,ioos:station:wmo:42369:3,2022-11-02T15:40:00Z,27.2026,-90.2727,543.4,11.6,11111222
BP,ioos:station:wmo:42369:3,2022-11-02T16:00:00Z,27.2027,-90.2727,542.9,11.6,11111222
BP,ioos:station:wmo:42369:3,2022-11-02T16:20:00Z,27.2027,-90.2727,543.6,11.6,11111222
BP,ioos:station:wmo:42369:3,2022-11-02T16:40:00Z,27.2027,-90.2727,543.8,11.6,11111222
BP,ioos:station:wmo:42369:3,2022-11-02T17:00:00Z,27.2027,-90.2727,541.5,11.6,11111222
BP,ioos:station:wmo:42369:3,2022-11-02T17:20:00Z,27.2027,-90.2727,539.8,11.5,11111222
BP,ioos:station:wmo:42369:3,2022-11-02T17:40:00Z,27.2027,-90.2728,539.9,11.5,11111222
BP,ioos:station:wmo:42369:3,2022-11-02T18:00:00Z,27.2028,-90.2727,539.3,11.5,11111222
BP,ioos:station:wmo:42369:3,2022-11-02T18:20:00Z,27.2028,-90.2728,539.5,11.5,11111222
BP,ioos:station:wmo:42369:3,2022-11-02T18:40:00Z,27.2027,-90.2728,538.6,11.5,11111222
BP,ioos:station:wmo:42369:3,2022-11-02T19:00:00Z,27.2027,-90.2728,537.2,11.5,11111222
BP,ioos:station:wmo:42369:3,2022-11-02T19:20:00Z,27.2027,-90.2729,535.8,11.5,11111222
BP,ioos:station:wmo:42369:3,2022-11-02T19:40:00Z,27.2027,-90.2729,534.9,11.5,11111222
BP,ioos:station:wmo:42369:3,2022-11-02T20:00:00Z,27.2027,-90.2729,533.6,11.5,11111222
BP,ioos:station:wmo:42369:3,2022-11-02T20:20:00Z,27.2027,-90.2729,533.3,11.5,11111222
BP,ioos:station:wmo:42369:3,2022-11-02T20:40:00Z,27.2027,-90.2729,531.1,11.5,11111222
BP,ioos:station:wmo:42369:3,2022-11-02T21:00:00Z,27.2027,-90.2730,529.9,11.5,11111222
BP,ioos:station:wmo:42369:3,2022-11-02T21:20:00Z,27.2027,-90.2730,527.6,11.5,11111222
BP,ioos:station:wmo:42369:3,2022-11-02T21:40:00Z,27.2027,-90.2730,527.8,11.5,11111222
BP,ioos:station:wmo:42369:3,2022-11-02T22:00:00Z,27.2027,-90.2730,527.7,11.5,11111222
BP,ioos:station:wmo:42369:3,2022-11-02T22:20:00Z,27.2028,-90.2730,526.3,11.5,11111222
BP,ioos:station:wmo:42369:3,2022-11-02T22:40:00Z,27.2028,-90.2730,525.7,11.5,11111222
BP,ioos:station:wmo:42369:3,2022-11-02T23:00:00Z,27.2028,-90.2730,527.2,11.5,11111222
BP,ioos:station:wmo:42369:3,2022-11-02T23:20:00Z,27.2028,-90.2730,525.4,11.6,11111222
BP,ioos:station:wmo:42369:3,2022-11-02T23:40:00Z,27.2028,-90.2730,525.8,11.6,11111222
BP,ioos:station:wmo:42369:3,2022-11-03T00:20:00Z,27.2027,-90.2730,527.9,11.6,11111222
BP,ioos:station:wmo:42369:3,2022-11-03T00:40:00Z,27.2028,-90.2730,526.3,11.6,11111222
BP,ioos:station:wmo:42369:3,2022-11-03T01:00:00Z,27.2028,-90.2729,526.5,11.5,11111222
BP,ioos:station:wmo:42369:3,2022-11-03T01:20:00Z,27.2028,-90.2730,525.0,11.5,11111222
BP,ioos:station:wmo:42369:3,2022-11-03T01:40:00Z,27.2028,-90.2730,523.7,11.5,11111222
BP,ioos:station:wmo:42369:3,2022-11-03T02:00:00Z,27.2027,-90.2730,525.8,11.5,11111222
BP,ioos:station:wmo:42369:3,2022-11-03T02:20:00Z,27.2027,-90.2730,525.1,11.5,11111222
BP,ioos:station:wmo:42369:3,2022-11-03T02:40:00Z,27.2027,-90.2730,524.9,11.5,11111222
BP,ioos:station:wmo:42369:3,2022-11-03T03:00:00Z,27.2027,-90.2730,524.9,11.4,11111222
BP,ioos:station:wmo:42369:3,2022-11-03T03:20:00Z,27.2027,-90.2730,525.5,11.4,11111222
BP,ioos:station:wmo:42369:3,2022-11-03T03:40:00Z,27.2026,-90.2730,526.8,11.5,11111222
BP,ioos:station:wmo:42369:3,2022-11-03T04:00:00Z,27.2026,-90.2730,527.3,11.5,11111222
BP,ioos:station:wmo:42369:3,2022-11-03T04:20:00Z,27.2026,-90.2731,525.5,11.5,11111222
BP,ioos:station:wmo:42369:3,2022-11-03T04:40:00Z,27.2027,-90.2731,523.4,11.6,11111222
BP,ioos:station:wmo:42369:3,2022-11-03T05:00:00Z,27.2027,-90.2731,522.4,11.6,11111222
BP,ioos:station:wmo:42369:3,2022-11-03T05:20:00Z,27.2028,-90.2731,521.6,11.6,11111222
BP,ioos:station:wmo:42369:3,2022-11-03T05:40:00Z,27.2028,-90.2731,521.2,11.6,11111222
BP,ioos:station:wmo:42369:3,2022-11-03T06:00:00Z,27.2028,-90.2731,519.6,11.5,11111222
BP,ioos:station:wmo:42369:3,2022-11-03T06:20:00Z,27.2028,-90.2730,521.5,11.5,11111222
BP,ioos:station:wmo:42369:3,2022-11-03T06:40:00Z,27.2027,-90.2730,521.3,11.5,11111222
BP,ioos:station:wmo:42369:3,2022-11-03T07:00:00Z,27.2027,-90.2731,521.1,11.5,11111222
BP,ioos:station:wmo:42369:3,2022-11-03T07:20:00Z,27.2027,-90.2730,521.9,11.5,11111222
BP,ioos:station:wmo:42369:3,2022-11-03T07:40:00Z,27.2027,-90.2730,522.6,11.5,11111222
BP,ioos:station:wmo:42369:3,2022-11-03T08:00:00Z,27.2027,-90.2730,522.7,11.5,11111222
BP,ioos:station:wmo:42369:3,2022-11-03T08:20:00Z,27.2027,-90.2730,521.2,11.5,11111222
BP,ioos:station:wmo:42369:3,2022-11-03T08:40:00Z,27.2028,-90.2731,519.2,11.5,11111222
BP,ioos:station:wmo:42369:3,2022-11-03T09:00:00Z,27.2029,-90.2731,517.1,11.6,11111222
BP,ioos:station:wmo:42369:3,2022-11-03T09:20:00Z,27.2029,-90.2731,514.9,11.6,11111222
BP,ioos:station:wmo:42369:3,2022-11-03T09:40:00Z,27.2029,-90.2731,513.5,11.6,11111222
BP,ioos:station:wmo:42369:3,2022-11-03T10:00:00Z,27.2029,-90.2731,513.4,11.6,11111222
BP,ioos:station:wmo:42369:3,2022-11-03T10:20:00Z,27.2029,-90.2731,513.9,11.6,11111222
BP,ioos:station:wmo:42369:3,2022-11-03T10:40:00Z,27.2029,-90.2731,512.8,11.7,11111222
BP,ioos:station:wmo:42369:3,2022-11-03T11:00:00Z,27.2030,-90.2731,511.0,11.7,11111222
BP,ioos:station:wmo:42369:3,2022-11-03T11:20:00Z,27.2030,-90.2731,511.2,11.7,11111222
BP,ioos:station:wmo:42369:3,2022-11-03T11:40:00Z,27.2030,-90.2730,512.0,11.7,11111222
BP,ioos:station:wmo:42369:3,2022-11-03T12:00:00Z,27.2030,-90.2730,513.1,11.7,11111222
BP,ioos:station:wmo:42369:3,2022-11-03T12:20:00Z,27.2030,-90.2730,513.7,11.7,11111222
BP,ioos:station:wmo:42369:3,2022-11-03T12:40:00Z,27.2029,-90.2730,512.8,11.7,11111222
BP,ioos:station:wmo:42369:3,2022-11-03T13:00:00Z,27.2029,-90.2731,512.1,11.8,11111222
BP,ioos:station:wmo:42369:3,2022-11-03T13:20:00Z,27.2028,-90.2732,510.6,11.8,11111222
BP,ioos:station:wmo:42369:3,2022-11-03T13:40:00Z,27.2028,-90.2732,508.6,11.8,11111222
BP,ioos:station:wmo:42369:3,2022-11-03T14:00:00Z,27.2029,-90.2732,508.4,11.8,11111222
BP,ioos:station:wmo:42369:3,2022-11-03T14:20:00Z,27.2029,-90.2731,509.2,11.8,11111222
BP,ioos:station:wmo:42369:3,2022-11-03T14:40:00Z,27.2029,-90.2731,509.1,11.8,11111222
BP,ioos:station:wmo:42369:3,2022-11-03T15:00:00Z,27.2029,-90.2731,508.6,11.8,11111222
BP,ioos:station:wmo:42369:3,2022-11-03T15:20:00Z,27.2030,-90.2730,508.1,11.8,11111222
BP,ioos:station:wmo:42369:3,2022-11-03T15:40:00Z,27.2030,-90.2730,507.9,11.8,11111222
BP,ioos:station:wmo:42369:3,2022-11-03T16:00:00Z,27.2030,-90.2731,507.8,11.8,11111222
BP,ioos:station:wmo:42369:3,2022-11-03T16:20:00Z,27.2030,-90.2730,507.4,11.8,11111222
BP,ioos:station:wmo:42369:3,2022-11-03T16:40:00Z,27.2030,-90.2730,508.5,11.8,11111222
BP,ioos:station:wmo:42369:3,2022-11-03T17:00:00Z,27.2030,-90.2730,507.5,11.8,11111222
BP,ioos:station:wmo:42369:3,2022-11-03T17:20:00Z,27.2031,-90.2731,507.6,11.8,11111222
BP,ioos:station:wmo:42369:3,2022-11-03T17:40:00Z,27.2030,-90.2731,506.9,11.8,11111222
BP,ioos:station:wmo:42369:3,2022-11-03T18:00:00Z,27.2031,-90.2731,505.2,11.8,11111222
BP,ioos:station:wmo:42369:3,2022-11-03T18:20:00Z,27.2031,-90.2731,504.1,11.7,11111222
BP,ioos:station:wmo:42369:3,2022-11-03T18:40:00Z,27.2032,-90.2731,502.8,11.7,11111222
BP,ioos:station:wmo:42369:3,2022-11-03T19:00:00Z,27.2032,-90.2731,503.0,11.7,11111222
BP,ioos:station:wmo:42369:3,2022-11-03T19:20:00Z,27.2033,-90.2731,502.2,11.7,11111222
BP,ioos:station:wmo:42369:3,2022-11-03T19:40:00Z,27.2033,-90.2731,501.2,11.7,11111222
BP,ioos:station:wmo:42369:3,2022-11-03T20:00:00Z,27.2033,-90.2731,500.0,11.8,11111222
BP,ioos:station:wmo:42369:3,2022-11-03T20:20:00Z,27.2033,-90.2731,499.0,11.9,11111222
BP,ioos:station:wmo:42369:3,2022-11-03T20:40:00Z,27.2034,-90.2732,497.5,11.9,11111222
BP,ioos:station:wmo:42369:3,2022-11-03T21:00:00Z,27.2034,-90.2732,495.2,11.9,11111222
BP,ioos:station:wmo:42369:3,2022-11-03T21:20:00Z,27.2034,-90.2733,493.2,12.0,11111222
BP,ioos:station:wmo:42369:3,2022-11-03T21:40:00Z,27.2034,-90.2733,492.2,12.0,11111222
BP,ioos:station:wmo:42369:3,2022-11-03T22:00:00Z,27.2034,-90.2733,491.8,12.0,11111222
BP,ioos:station:wmo:42369:3,2022-11-03T22:20:00Z,27.2034,-90.2734,490.6,12.0,11111222
BP,ioos:station:wmo:42369:3,2022-11-03T22:40:00Z,27.2034,-90.2734,488.3,12.1,11111222
BP,ioos:station:wmo:42369:3,2022-11-03T23:00:00Z,27.2035,-90.2734,488.2,12.1,11111222
BP,ioos:station:wmo:42369:3,2022-11-03T23:20:00Z,27.2035,-90.2735,487.4,12.1,11111222
BP,ioos:station:wmo:42369:3,2022-11-03T23:40:00Z,27.2035,-90.2735,486.1,12.1,11111222
BP,ioos:station:wmo:42369:3,2022-11-04T00:00:00Z,27.2035,-90.2735,486.3,12.1,11111222
BP,ioos:station:wmo:42369:3,2022-11-04T00:20:00Z,27.2034,-90.2735,484.7,12.1,11111222
BP,ioos:station:wmo:42369:3,2022-11-04T00:40:00Z,27.2034,-90.2735,483.5,12.2,11111222
BP,ioos:station:wmo:42369:3,2022-11-04T01:00:00Z,27.2034,-90.2737,481.3,12.2,11111222
BP,ioos:station:wmo:42369:3,2022-11-04T01:20:00Z,27.2034,-90.2737,480.3,12.3,11111222
BP,ioos:station:wmo:42369:3,2022-11-04T01:40:00Z,27.2034,-90.2737,480.9,12.2,11111222
BP,ioos:station:wmo:42369:3,2022-11-04T02:00:00Z,27.2034,-90.2737,480.9,12.2,11111222
BP,ioos:station:wmo:42369:3,2022-11-04T02:20:00Z,27.2033,-90.2737,481.6,12.2,11111222
BP,ioos:station:wmo:42369:3,2022-11-04T02:40:00Z,27.2032,-90.2737,482.2,12.2,11111222
BP,ioos:station:wmo:42369:3,2022-11-04T03:00:00Z,27.2032,-90.2737,482.8,12.2,11111222
BP,ioos:station:wmo:42369:3,2022-11-04T03:20:00Z,27.2032,-90.2737,483.0,12.2,11111222
BP,ioos:station:wmo:42369:3,2022-11-04T03:40:00Z,27.2032,-90.2737,482.0,12.2,11111222
BP,ioos:station:wmo:42369:3,2022-11-04T04:00:00Z,27.2033,-90.2737,481.5,12.2,11111222
BP,ioos:station:wmo:42369:3,2022-11-04T04:20:00Z,27.2033,-90.2737,482.1,12.2,11111222
BP,ioos:station:wmo:42369:3,2022-11-04T04:40:00Z,27.2033,-90.2737,481.2,12.2,11111222
BP,ioos:station:wmo:42369:3,2022-11-04T05:00:00Z,27.2034,-90.2737,482.0,12.1,11111222
BP,ioos:station:wmo:42369:3,2022-11-04T05:20:00Z,27.2034,-90.2737,481.3,12.1,11111222
BP,ioos:station:wmo:42369:3,2022-11-04T05:40:00Z,27.2034,-90.2737,481.9,12.1,11111222
BP,ioos:station:wmo:42369:3,2022-11-04T06:00:00Z,27.2035,-90.2736,481.4,12.1,11111222
BP,ioos:station:wmo:42369:3,2022-11-04T06:20:00Z,27.2035,-90.2736,482.3,12.1,11111222
BP,ioos:station:wmo:42369:3,2022-11-04T06:40:00Z,27.2034,-90.2736,482.2,12.1,11111222
BP,ioos:station:wmo:42369:3,2022-11-04T07:00:00Z,27.2036,-90.2736,480.6,12.1,11111222
BP,ioos:station:wmo:42369:3,2022-11-04T07:20:00Z,27.2036,-90.2736,479.5,12.1,11111222
BP,ioos:station:wmo:42369:3,2022-11-04T07:40:00Z,27.2037,-90.2736,478.2,12.1,11111222
BP,ioos:station:wmo:42369:3,2022-11-04T08:00:00Z,27.2038,-90.2737,476.5,12.1,11111222
BP,ioos:station:wmo:42369:3,2022-11-04T08:20:00Z,27.2038,-90.2736,476.9,12.1,11111222
BP,ioos:station:wmo:42369:3,2022-11-04T08:40:00Z,27.2037,-90.2737,476.6,12.1,11111222
BP,ioos:station:wmo:42369:3,2022-11-04T09:00:00Z,27.2037,-90.2737,475.5,12.2,11111222
BP,ioos:station:wmo:42369:3,2022-11-04T09:20:00Z,27.2037,-90.2737,475.7,12.2,11111222
BP,ioos:station:wmo:42369:3,2022-11-04T09:40:00Z,27.2037,-90.2737,475.4,12.2,11111222
BP,ioos:station:wmo:42369:3,2022-11-04T10:00:00Z,27.2037,-90.2737,474.7,12.2,11111222
BP,ioos:station:wmo:42369:3,2022-11-04T10:20:00Z,27.2038,-90.2737,474.8,12.3,11111222
BP,ioos:station:wmo:42369:3,2022-11-04T10:40:00Z,27.2038,-90.2737,473.7,12.3,11111222
BP,ioos:station:wmo:42369:3,2022-11-04T11:00:00Z,27.2038,-90.2738,473.6,12.3,11111222
BP,ioos:station:wmo:42369:3,2022-11-04T11:20:00Z,27.2038,-90.2737,473.8,12.3,11111222
BP,ioos:station:wmo:42369:3,2022-11-04T11:40:00Z,27.2039,-90.2737,473.3,12.4,11111222
BP,ioos:station:wmo:42369:3,2022-11-04T12:00:00Z,27.2039,-90.2737,472.4,12.4,11111222
BP,ioos:station:wmo:42369:3,2022-11-04T12:20:00Z,27.2040,-90.2737,472.6,12.4,11111222
BP,ioos:station:wmo:42369:3,2022-11-04T12:40:00Z,27.2040,-90.2737,471.7,12.4,11111222
BP,ioos:station:wmo:42369:3,2022-11-04T13:00:00Z,27.2040,-90.2737,471.1,12.4,11111222
BP,ioos:station:wmo:42369:3,2022-11-04T13:20:00Z,27.2040,-90.2737,471.5,12.4,11111222
BP,ioos:station:wmo:42369:3,2022-11-04T13:40:00Z,27.2041,-90.2737,470.2,12.5,11111222
BP,ioos:station:wmo:42369:3,2022-11-04T14:00:00Z,27.2041,-90.2737,469.5,12.5,11111222
BP,ioos:station:wmo:42369:3,2022-11-04T14:20:00Z,27.2041,-90.2737,469.1,12.5,11111222
BP,ioos:station:wmo:42369:3,2022-11-04T14:40:00Z,27.2042,-90.2737,468.7,12.6,11111222
BP,ioos:station:wmo:42369:3,2022-11-04T15:00:00Z,27.2042,-90.2737,469.2,12.6,11111222
BP,ioos:station:wmo:42369:3,2022-11-04T15:20:00Z,27.2043,-90.2736,469.3,12.6,11111222
BP,ioos:station:wmo:42369:3,2022-11-04T15:40:00Z,27.2043,-90.2736,469.1,12.6,11111222
BP,ioos:station:wmo:42369:3,2022-11-04T16:00:00Z,27.2043,-90.2736,469.7,12.6,11111222
BP,ioos:station:wmo:42369:3,2022-11-04T16:20:00Z,27.2044,-90.2735,470.0,12.6,11111222
BP,ioos:station:wmo:42369:3,2022-11-04T16:40:00Z,27.2045,-90.2735,470.7,12.6,11111222
BP,ioos:station:wmo:42369:3,2022-11-04T17:00:00Z,27.2045,-90.2735,469.9,12.6,11111222
BP,ioos:station:wmo:42369:3,2022-11-04T17:20:00Z,27.2046,-90.2735,469.7,12.6,11111222
BP,ioos:station:wmo:42369:3,2022-11-04T18:40:00Z,27.2048,-90.2733,473.9,12.6,11111222
BP,ioos:station:wmo:42369:3,2022-11-04T19:00:00Z,27.2049,-90.2733,472.0,12.6,11111222
BP,ioos:station:wmo:42369:3,2022-11-04T19:20:00Z,27.2048,-90.2733,472.1,12.6,11111222
BP,ioos:station:wmo:42369:3,2022-11-04T19:40:00Z,27.2048,-90.2733,472.5,12.6,11111222
BP,ioos:station:wmo:42369:3,2022-11-04T20:00:00Z,27.2049,-90.2733,472.6,12.6,11111222
BP,ioos:station:wmo:42369:3,2022-11-04T22:40:00Z,27.2050,-90.2732,473.6,12.4,11111222
BP,ioos:station:wmo:42369:3,2022-11-04T23:00:00Z,27.2049,-90.2732,473.4,12.4,11111222
BP,ioos:station:wmo:42369:3,2022-11-04T23:20:00Z,27.2050,-90.2732,473.4,12.4,11111222
BP,ioos:station:wmo:42369:3,2022-11-04T23:40:00Z,27.2050,-90.2732,472.6,12.4,11111222
BP,ioos:station:wmo:42369:3,2022-11-05T00:00:00Z,27.2049,-90.2732,472.8,12.4,11111222
BP,ioos:station:wmo:42369:3,2022-11-05T00:40:00Z,27.2048,-90.2732,472.1,12.4,11111222
BP,ioos:station:wmo:42369:3,2022-11-05T01:40:00Z,27.2048,-90.2733,471.4,12.4,11111222
BP,ioos:station:wmo:42369:3,2022-11-05T02:00:00Z,27.2048,-90.2734,471.0,12.4,11111222
BP,ioos:station:wmo:42369:3,2022-11-05T02:20:00Z,27.2047,-90.2734,470.5,12.4,11111222
BP,ioos:station:wmo:42369:3,2022-11-05T02:40:00Z,27.2048,-90.2734,469.7,12.4,11111222
BP,ioos:station:wmo:42369:3,2022-11-05T03:00:00Z,27.2049,-90.2735,467.0,12.5,11111222
BP,ioos:station:wmo:42369:3,2022-11-05T03:20:00Z,27.2049,-90.2735,467.2,12.5,11111222
BP,ioos:station:wmo:42369:3,2022-11-05T03:40:00Z,27.2049,-90.2735,467.5,12.5,11111222
BP,ioos:station:wmo:42369:3,2022-11-05T04:00:00Z,27.2049,-90.2735,467.0,12.5,11111222
BP,ioos:station:wmo:42369:3,2022-11-05T04:20:00Z,27.2049,-90.2735,466.6,12.5,11111222